• In Denmark
  • List of Countries
  • For 7 days
  • Water Temperature
  • Satellite Maps
  • Weather Map
  • Weather Widgets
  • user-avatar
    Login

    Hourly Weather Barra

    Today, 25 September, Monday

    Time Temperature Precipitation Wind Pressure Humidity
    00:00 +19°C° 0 mm 1 mps 750 mmHg 93%
    01:00 +19°C° 0 mm 1 mps 750 mmHg 94%
    02:00 +19°C° 0 mm 1 mps 750 mmHg 95%
    03:00 +19°C° 0 mm 1 mps 750 mmHg 96%
    04:00 +19°C° 0 mm 1 mps 749 mmHg 97%
    05:00 +19°C° 0 mm 1 mps 750 mmHg 96%
    06:00 +19°C° 0 mm 1 mps 750 mmHg 95%
    07:00 +20°C° 0 mm 1 mps 750 mmHg 93%
    08:00 +23°C° 0 mm 1 mps 751 mmHg 80%
    09:00 +26°C° 0 mm 1 mps 751 mmHg 66%
    10:00 +28°C° 0 mm 1 mps 751 mmHg 52%
    11:00 +29°C° 0 mm 2 mps 750 mmHg 49%
    12:00 +30°C° 0 mm 2 mps 750 mmHg 45%
    13:00 +31°C° 0 mm 2 mps 749 mmHg 41%
    14:00 +30°C° 0 mm 2 mps 749 mmHg 43%
    15:00 +30°C° 0 mm 2 mps 749 mmHg 45%
    16:00 +29°C° 0 mm 2 mps 748 mmHg 47%
    17:00 +27°C° 0 mm 2 mps 748 mmHg 58%
    18:00 +24°C° 0 mm 2 mps 749 mmHg 69%
    19:00 +22°C° 0 mm 1 mps 749 mmHg 80%
    20:00 +21°C° 0 mm 1 mps 749 mmHg 84%
    21:00 +21°C° 0 mm 1 mps 750 mmHg 88%
    22:00 +20°C° 0 mm 1 mps 750 mmHg 91%
    23:00 +20°C° 0 mm 1 mps 750 mmHg 93%

    Tomorrow, 26 September, Tuesday

    Time Temperature Precipitation Wind Pressure Humidity
    00:00 +19°C° 0 mm 1 mps 750 mmHg 94%
    01:00 +19°C° 0 mm 1 mps 750 mmHg 95%
    02:00 +19°C° 0 mm 1 mps 750 mmHg 95%
    03:00 +19°C° 0 mm 1 mps 749 mmHg 96%
    04:00 +19°C° 0 mm 1 mps 749 mmHg 97%
    05:00 +19°C° 0 mm 1 mps 750 mmHg 95%
    06:00 +19°C° 0 mm 1 mps 750 mmHg 93%
    07:00 +19°C° 0 mm 2 mps 751 mmHg 92%
    08:00 +23°C° 0 mm 2 mps 751 mmHg 79%
    09:00 +26°C° 0 mm 2 mps 751 mmHg 66%
    10:00 +29°C° 0 mm 2 mps 751 mmHg 53%
    11:00 +30°C° 0 mm 2 mps 751 mmHg 51%
    12:00 +31°C° 0 mm 2 mps 750 mmHg 48%
    13:00 +33°C° 0 mm 3 mps 750 mmHg 45%
    14:00 +31°C° 0 mm 3 mps 749 mmHg 48%
    15:00 +30°C° 0 mm 3 mps 749 mmHg 51%
    16:00 +30°C° 0 mm 3 mps 748 mmHg 54%
    17:00 +27°C° 0 mm 2 mps 749 mmHg 66%
    18:00 +25°C° 0 mm 2 mps 749 mmHg 78%
    19:00 +23°C° 0 mm 2 mps 749 mmHg 89%
    20:00 +23°C° 0 mm 1 mps 750 mmHg 91%
    21:00 +22°C° 0 mm 1 mps 750 mmHg 92%
    22:00 +22°C° 0 mm 1 mps 751 mmHg 94%
    23:00 +22°C° 0 mm 1 mps 751 mmHg 95%

    Day after tomorrow, 27 September, Wednesday

    Time Temperature Precipitation Wind Pressure Humidity
    00:00 +22°C° 0 mm 1 mps 750 mmHg 96%
    01:00 +22°C° 0 mm 1 mps 750 mmHg 97%
    02:00 +22°C° 0.1 mm 1 mps 750 mmHg 96%
    03:00 +22°C° 0.1 mm 1 mps 750 mmHg 96%
    04:00 +22°C° 0.1 mm 1 mps 750 mmHg 95%
    05:00 +21°C° 0.1 mm 2 mps 750 mmHg 94%
    06:00 +23°C° 0.1 mm 2 mps 751 mmHg 93%
    07:00 +23°C° 0.1 mm 2 mps 751 mmHg 92%
    08:00 +25°C° 0.1 mm 2 mps 751 mmHg 84%
    09:00 +26°C° 0.1 mm 2 mps 752 mmHg 75%
    10:00 +28°C° 0.1 mm 3 mps 752 mmHg 67%
    11:00 +29°C° 0 mm 3 mps 751 mmHg 61%
    12:00 +30°C° 0 mm 3 mps 751 mmHg 55%
    13:00 +31°C° 0 mm 3 mps 750 mmHg 49%
    14:00 +31°C° 0 mm 3 mps 749 mmHg 51%
    15:00 +30°C° 0 mm 3 mps 749 mmHg 52%
    16:00 +30°C° 0 mm 3 mps 748 mmHg 54%
    17:00 +28°C° 0 mm 2 mps 749 mmHg 65%
    18:00 +25°C° 0 mm 2 mps 749 mmHg 75%
    19:00 +23°C° 0 mm 2 mps 750 mmHg 86%
    20:00 +22°C° 0 mm 1 mps 750 mmHg 89%
    21:00 +22°C° 0 mm 1 mps 751 mmHg 91%
    22:00 +21°C° 0 mm 1 mps 751 mmHg 94%
    23:00 +21°C° 0 mm 1 mps 751 mmHg 94%

    28 September, Thursday

    Time Temperature Precipitation Wind Pressure Humidity
    00:00 +21°C° 0 mm 1 mps 751 mmHg 95%
    01:00 +20°C° 0 mm 1 mps 750 mmHg 95%
    02:00 +20°C° 0 mm 1 mps 750 mmHg 96%
    03:00 +20°C° 0 mm 1 mps 750 mmHg 96%
    04:00 +20°C° 0 mm 1 mps 750 mmHg 96%
    05:00 +20°C° 0 mm 1 mps 750 mmHg 95%
    06:00 +21°C° 0 mm 1 mps 751 mmHg 93%
    07:00 +21°C° 0 mm 1 mps 751 mmHg 91%
    08:00 +24°C° 0 mm 1 mps 751 mmHg 80%
    09:00 +26°C° 0 mm 2 mps 751 mmHg 68%
    10:00 +28°C° 0 mm 2 mps 751 mmHg 56%
    11:00 +29°C° 0 mm 3 mps 751 mmHg 52%
    12:00 +30°C° 0 mm 3 mps 750 mmHg 48%
    13:00 +31°C° 0 mm 3 mps 749 mmHg 44%
    14:00 +31°C° 0 mm 3 mps 749 mmHg 47%
    15:00 +30°C° 0 mm 3 mps 748 mmHg 49%
    16:00 +29°C° 0 mm 3 mps 748 mmHg 51%
    17:00 +27°C° 0 mm 3 mps 748 mmHg 61%
    18:00 +25°C° 0 mm 2 mps 749 mmHg 71%
    19:00 +21°C° 0 mm 2 mps 749 mmHg 81%
    20:00 +21°C° 0 mm 2 mps 750 mmHg 84%
    21:00 +20°C° 0 mm 2 mps 750 mmHg 88%
    22:00 +21°C° 0 mm 1 mps 751 mmHg 91%
    23:00 +20°C° 0 mm 1 mps 751 mmHg 92%

    29 September, Friday

    Time Temperature Precipitation Wind Pressure Humidity
    00:00 +20°C° 0 mm 1 mps 750 mmHg 93%
    01:00 +20°C° 0 mm 1 mps 750 mmHg 94%
    02:00 +20°C° 0 mm 1 mps 750 mmHg 94%
    03:00 +20°C° 0 mm 1 mps 750 mmHg 94%
    04:00 +20°C° 0 mm 1 mps 750 mmHg 94%
    05:00 +20°C° 0 mm 1 mps 750 mmHg 92%
    06:00 +21°C° 0 mm 1 mps 751 mmHg 89%
    07:00 +22°C° 0 mm 1 mps 752 mmHg 87%
    08:00 +24°C° 0 mm 2 mps 752 mmHg 76%
    09:00 +26°C° 0 mm 2 mps 752 mmHg 65%
    10:00 +28°C° 0 mm 2 mps 752 mmHg 55%
    11:00 +29°C° 0 mm 2 mps 751 mmHg 51%
    12:00 +30°C° 0 mm 3 mps 751 mmHg 47%
    13:00 +31°C° 0 mm 3 mps 750 mmHg 43%
    14:00 +30°C° 0 mm 3 mps 750 mmHg 45%
    15:00 +30°C° 0 mm 3 mps 749 mmHg 46%
    16:00 +29°C° 0 mm 3 mps 749 mmHg 48%
    17:00 +27°C° 0 mm 2 mps 750 mmHg 58%
    18:00 +25°C° 0 mm 2 mps 750 mmHg 68%
    19:00 +21°C° 0 mm 2 mps 751 mmHg 77%
    20:00 +21°C° 0 mm 2 mps 751 mmHg 81%
    21:00 +21°C° 0 mm 1 mps 752 mmHg 85%
    22:00 +20°C° 0 mm 1 mps 752 mmHg 89%
    23:00 +20°C° 0 mm 1 mps 752 mmHg 91%

    30 September, Saturday

    Time Temperature Precipitation Wind Pressure Humidity
    00:00 +20°C° 0 mm 1 mps 751 mmHg 92%
    01:00 +20°C° 0 mm 1 mps 751 mmHg 94%
    02:00 +20°C° 0 mm 1 mps 751 mmHg 94%
    03:00 +19°C° 0 mm 1 mps 750 mmHg 95%
    04:00 +19°C° 0 mm 1 mps 750 mmHg 96%
    05:00 +20°C° 0 mm 1 mps 751 mmHg 94%
    06:00 +21°C° 0 mm 1 mps 751 mmHg 92%
    07:00 +21°C° 0 mm 1 mps 752 mmHg 90%
    08:00 +24°C° 0 mm 1 mps 752 mmHg 78%
    09:00 +26°C° 0 mm 1 mps 752 mmHg 66%
    10:00 +29°C° 0 mm 2 mps 752 mmHg 55%
    11:00 +30°C° 0 mm 2 mps 751 mmHg 54%
    12:00 +30°C° 0 mm 3 mps 751 mmHg 53%
    13:00 +31°C° 0 mm 3 mps 750 mmHg 52%
    14:00 +30°C° 0 mm 3 mps 750 mmHg 55%
    15:00 +30°C° 0 mm 3 mps 749 mmHg 57%
    16:00 +29°C° 0 mm 3 mps 749 mmHg 60%
    17:00 +27°C° 0 mm 3 mps 750 mmHg 70%
    18:00 +25°C° 0 mm 2 mps 750 mmHg 80%
    19:00 +24°C° 0 mm 2 mps 751 mmHg 89%
    20:00 +23°C° 0 mm 2 mps 751 mmHg 91%
    21:00 +23°C° 0 mm 2 mps 751 mmHg 92%
    22:00 +23°C° 0 mm 1 mps 752 mmHg 93%
    23:00 +23°C° 0 mm 1 mps 751 mmHg 93%
    Show more